User: anonymous   Login
Location: Cincinnati Observatory Center
(39.1389°N, 84.4225°W)
Time: 19:57:00
(UTC-04:00)
Language:

COSMOS 2428 - Orbit

View from above orbital plane
View from above orbital plane
View from above satellite
View from above satellite

Ground track
Ground track

The orbit data is extracted from the following two-line orbital elements,

1 31792U 07029A   14295.79988405  .00000367  00000-0  22469-3 0  1096
2 31792 070.9718 282.1738 0011613 288.1804 150.8840 14.12450869377339
Epoch (UTC): 22 October 2014 19:11:49
Eccentricity: 0.0011613
inclination: 70.9718°
perigee height: 842 km
apogee height: 859 km
right ascension of ascending node: 282.1738°
argument of perigee: 288.1804°
revolutions per day: 14.12450869
mean anomaly at epoch: 150.8840°
orbit number at epoch: 37733

The dashed part of the orbit path shows where the satellite is in the earth's shadow,  

DLR